GW0410 Weather Reports


time (UTC)temp
C
wind
direction
speed
KPH
gust
KPH
rain 1hr
cm
rain 24hr
cm
rain mn
cm
humidity
%
barometer
mb
20260901095026 23 332 0.0 3.2 0.00 0.00 0.00 61 1021.0
20260901094019 22 341 0.0 0.0 0.00 0.00 0.00 61 1020.9
20260901093102 21 314 0.0 0.0 0.00 0.00 0.00 62 1020.9
20260901092100 21 322 0.0 3.2 0.00 0.00 0.00 64 1020.9
20260901091020 22 5 0.0 3.2 0.00 0.00 0.00 62 1020.9
20260901085031 24 165 0.0 1.6 0.00 0.00 0.00 60 1021.0
20260901084024 23 293 0.0 1.6 0.00 0.00 0.00 57 1021.0
20260901083035 23 302 3.2 6.4 0.00 0.00 0.00 58 1020.7
20260901082028 23 315 0.0 4.8 0.00 0.00 0.00 59 1020.7
20260901081027 23 352 1.6 4.8 0.00 0.00 0.00 59 1021.1
20260901080053 22 341 0.0 3.2 0.00 0.00 0.00 60 1021.0
20260901075021 22 291 1.6 4.8 0.00 0.00 0.00 62 1021.0
20260901074020 21 326 0.0 1.6 0.00 0.00 0.00 63 1020.6
20260901073024 21 305 0.0 0.0 0.00 0.00 0.00 66 1020.6
20260901072025 21 288 0.0 1.6 0.00 0.00 0.00 65 1020.6
20260901071019 20 258 0.0 6.4 0.00 0.00 0.00 68 1020.6
20260901070037 21 327 0.0 0.0 0.00 0.00 0.00 68 1020.3
20260901065038 21 295 0.0 0.0 0.00 0.00 0.00 66 1020.3
20260901064048 21 328 0.0 0.0 0.00 0.00 0.00 68 1020.3
20260901063031 20 287 0.0 1.6 0.00 0.00 0.00 70 1019.9
20260901062053 18 320 0.0 1.6 0.00 0.00 0.00 74 1019.9
20260901061019 18 293 0.0 0.0 0.00 0.00 0.00 77 1019.8
20260901060039 17 221 0.0 0.0 0.00 0.00 0.00 80 1019.8
20260901055100 16 255 0.0 4.8 0.00 0.00 0.00 81 1019.8
20260901054027 16 261 0.0 1.6 0.00 0.00 0.00 81 1019.8
20260901053023 16 285 0.0 0.0 0.00 0.00 0.00 82 1019.8
20260901052023 15 269 0.0 1.6 0.00 0.00 0.00 83 1019.8
20260901051029 15 319 0.0 0.0 0.00 0.00 0.00 85 1019.5
20260901050028 13 0.0 0.0 0.00 0.00 0.00 89 1019.1
20260901045041 13 0.0 0.0 0.00 0.00 0.00 90 1019.1
20260901044036 13 0.0 0.0 0.00 0.00 0.00 90 1019.1
20260901043036 13 0.0 0.0 0.00 0.00 0.00 90 1019.1
20260901042036 13 0.0 0.0 0.00 0.00 0.00 90 1019.1
20260901041124 13 0.0 0.0 0.00 0.00 0.00 88 1019.1
20260901040024 13 0.0 0.0 0.00 0.00 0.00 86 1019.2
20260901035023 14 0.0 0.0 0.00 0.00 0.00 85 1019.3
20260901034026 15 0.0 0.0 0.00 0.00 0.00 84 1018.9
20260901033028 15 262 0.0 3.2 0.00 0.00 0.00 83 1018.9
20260901032104 15 266 1.6 3.2 0.00 0.00 0.00 83 1019.0
20260901031021 15 291 0.0 1.6 0.00 0.00 0.00 86 1019.0
20260901030055 15 258 0.0 0.0 0.00 0.00 0.00 86 1019.0
20260901025059 14 0.0 0.0 0.00 0.00 0.00 89 1019.0
20260901024028 14 244 0.0 0.0 0.00 0.00 0.00 89 1018.7
20260901023026 15 0.0 0.0 0.00 0.00 0.00 89 1019.1
20260901022025 15 0.0 0.0 0.00 0.00 0.00 88 1019.1
20260901021023 15 0.0 0.0 0.00 0.00 0.00 87 1018.8
20260901020026 15 0.0 0.0 0.00 0.00 0.00 87 1018.4
20260901015025 15 0.0 0.0 0.00 0.00 0.00 86 1018.4
20260901014044 15 287 0.0 0.0 0.00 0.00 0.00 86 1018.4
20260901013026 15 0.0 0.0 0.00 0.00 0.00 85 1018.8
20260901012021 15 244 0.0 0.0 0.00 0.00 0.00 85 1018.6
20260901011025 15 252 1.6 4.8 0.00 0.00 0.00 86 1018.3
20260901010030 15 281 0.0 0.0 0.00 0.00 0.00 86 1018.3
20260901005027 15 0.0 0.0 0.00 0.00 0.00 86 1018.3
20260901004027 15 239 1.6 4.8 0.00 0.00 0.00 87 1018.3
20260901003035 15 281 0.0 1.6 0.00 0.00 0.00 86 1018.3
20260901002025 15 262 0.0 0.0 0.00 0.00 0.00 88 1018.2
20260901001019 15 0.0 0.0 0.00 0.00 0.00 88 1018.2
20260901000023 15 215 0.0 3.2 0.00 0.00 0.00 88 1018.2
20260831235101 15 0.0 0.0 0.00 0.00 0.00 86 1018.1
20260831234031 15 0.0 0.0 0.00 0.00 0.00 85 1018.5
20260831233026 16 0.0 0.0 0.00 0.00 0.00 84 1018.5
20260831232022 16 0.0 0.0 0.00 0.00 0.00 84 1018.5
20260831231043 16 248 0.0 0.0 0.00 0.00 0.00 83 1018.8
20260831230034 16 243 0.0 0.0 0.00 0.00 0.00 84 1018.8
20260831225023 16 0.0 0.0 0.00 0.00 0.00 84 1018.8
20260831224021 16 0.0 0.0 0.00 0.00 0.00 84 1018.8
20260831223031 16 249 0.0 0.0 0.00 0.00 0.00 84 1019.2
20260831222022 16 0.0 0.0 0.00 0.00 0.00 85 1019.1
20260831221034 16 0.0 0.0 0.00 0.00 0.00 84 1018.8
20260831220053 16 0.0 0.0 0.00 0.00 0.00 84 1018.5
20260831215023 16 0.0 0.0 0.00 0.00 0.00 84 1018.6
20260831214020 16 0.0 0.0 0.00 0.00 0.00 83 1018.9
20260831213033 16 0.0 0.0 0.00 0.00 0.00 81 1018.5
20260831212019 17 0.0 0.0 0.00 0.00 0.00 80 1018.4
20260831211107 17 0.0 0.0 0.00 0.00 0.00 78 1018.1
20260831210027 17 0.0 0.0 0.00 0.00 0.00 78 1017.7
20260831205040 17 0.0 0.0 0.00 0.00 0.00 77 1017.7
20260831204032 17 0.0 0.0 0.00 0.00 0.00 77 1017.7
20260831203034 17 0.0 0.0 0.00 0.00 0.00 77 1017.1
20260831202027 17 0.0 0.0 0.00 0.00 0.00 75 1017.1
20260831201035 17 0.0 0.0 0.00 0.00 0.00 73 1017.1
20260831200037 17 0.0 0.0 0.00 0.00 0.00 71 1016.8
20260831195034 18 0.0 0.0 0.00 0.00 0.00 71 1016.8
20260831194027 18 0.0 0.0 0.00 0.00 0.00 70 1016.8
20260831193023 18 0.0 0.0 0.00 0.00 0.00 69 1016.8
20260831192051 18 0.0 0.0 0.00 0.00 0.00 70 1016.8
20260831191028 18 0.0 0.0 0.00 0.00 0.00 71 1016.5
20260831190046 18 0.0 0.0 0.00 0.00 0.00 73 1016.5
20260831185027 18 0.0 0.0 0.00 0.00 0.00 72 1016.4
20260831184022 18 0.0 0.0 0.00 0.00 0.00 69 1016.4
20260831183048 19 0.0 0.0 0.00 0.00 0.00 69 1015.7
20260831182020 19 0.0 0.0 0.00 0.00 0.00 68 1015.7
20260831181032 19 0.0 0.0 0.00 0.00 0.00 68 1015.7
20260831180043 20 0.0 0.0 0.00 0.00 0.00 68 1015.4
20260831175032 20 0.0 0.0 0.00 0.00 0.00 67 1015.4
20260831174025 21 0.0 0.0 0.00 0.00 0.00 67 1015.8
20260831173027 21 0.0 0.0 0.00 0.00 0.00 66 1015.5
20260831172032 21 0.0 0.0 0.00 0.00 0.00 66 1015.4
20260831171023 22 0.0 0.0 0.00 0.00 0.00 67 1015.8
20260831170031 22 0.0 0.0 0.00 0.00 0.00 67 1015.8
20260831165027 22 0.0 0.0 0.00 0.00 0.00 66 1015.8
20260831164028 23 0.0 0.0 0.00 0.00 0.00 66 1015.5
20260831163036 23 319 0.0 0.0 0.00 0.00 0.00 67 1015.6
20260831162023 24 281 0.0 0.0 0.00 0.00 0.00 67 1015.6
20260831161032 25 0.0 0.0 0.00 0.00 0.00 67 1015.6
20260831160047 25 296 1.6 4.8 0.00 0.00 0.00 66 1015.6
20260831155023 25 0.0 0.0 0.00 0.00 0.00 67 1015.6
20260831154023 25 0.0 0.0 0.00 0.00 0.00 67 1016.0
20260831153024 25 350 0.0 0.0 0.00 0.00 0.00 68 1016.0
20260831152031 25 0.0 0.0 0.00 0.00 0.00 68 1016.0
20260831151025 25 0.0 0.0 0.00 0.00 0.00 69 1015.6
20260831150022 25 258 0.0 0.0 0.00 0.00 0.00 67 1016.0
20260831145026 27 285 0.0 3.2 0.00 0.00 0.00 62 1016.1
20260831144026 28 290 0.0 0.0 0.00 0.00 0.00 58 1016.2
20260831143111 28 300 1.6 3.2 0.00 0.00 0.00 59 1016.2
20260831142036 28 311 1.6 6.4 0.00 0.00 0.00 60 1016.1
20260831141026 27 283 0.0 3.2 0.00 0.00 0.00 61 1016.1
20260831140023 28 292 1.6 6.4 0.00 0.00 0.00 62 1016.1
20260831135030 27 278 1.6 6.4 0.00 0.00 0.00 62 1016.1
20260831134019 26 276 1.6 4.8 0.00 0.00 0.00 64 1016.1
20260831133021 27 279 1.6 6.4 0.00 0.00 0.00 62 1016.1
20260831132035 27 0.0 0.0 0.00 0.00 0.00 63 1016.1
20260831131046 27 257 1.6 6.4 0.00 0.00 0.00 63 1016.1
20260831130024 27 0.0 0.0 0.00 0.00 0.00 65 1016.1
20260831125020 25 249 0.0 1.6 0.00 0.00 0.00 68 1016.0
20260831124027 25 275 1.6 4.8 0.00 0.00 0.00 67 1016.3
20260831123029 25 282 1.6 4.8 0.00 0.00 0.00 68 1016.3
20260831122029 25 273 1.6 4.8 0.00 0.00 0.00 68 1016.3
20260831121039 25 273 1.6 6.4 0.00 0.00 0.00 68 1016.6
20260831120026 23 270 3.2 8.0 0.00 0.00 0.00 69 1016.2
20260831115023 23 255 1.6 3.2 0.00 0.00 0.00 71 1016.2
20260831114052 23 258 0.0 4.8 0.00 0.00 0.00 72 1016.2
20260831113038 22 262 0.0 3.2 0.00 0.00 0.00 75 1016.5
20260831112035 22 0.0 0.0 0.00 0.00 0.00 76 1016.5
20260831111018 21 245 0.0 1.6 0.00 0.00 0.00 75 1016.5
20260831110021 21 283 1.6 3.2 0.00 0.00 0.00 75 1016.5
20260831105031 21 245 0.0 0.0 0.00 0.00 0.00 76 1016.5
20260831104028 21 266 1.6 4.8 0.00 0.00 0.00 76 1016.5
20260831103025 21 272 1.6 6.4 0.00 0.00 0.00 76 1016.5
20260831102032 21 273 1.6 4.8 0.00 0.00 0.00 77 1016.5
20260831101105 21 265 1.6 6.4 0.00 0.00 0.00 76 1016.5